Presure
232 261 253 253 231 219 219 232 234 250 340 507 476 486 470 447 435 425 422 421 423 427 428 453 463 515 490
259 142 226 211 225 228 237 253 322 505 460 444 453 267 393 387 372 358 359 359 361 355 355 357 358 368 389
227 209 208 223 234 240 298 509 469 438 421 448 363 374 358 343 338 339 344 345 353 354 363 374 382 382 361
202 216 227 235 251 334 481 436 419 420 430 362 360 351 338 344 331 329 347 341 336 343 355 359 364 370 378
221 233 237 295 342 447 425 425 425 419 370 339 339 344 337 325 326 327 324 322 370 381 339 349 360 354 359
237 253 329 522 437 406 426 410 377 372 344 326 339 322 314 318 311 316 318 408 408 398 373 383 375 374 368
285 334 521 436 415 390 392 374 356 348 326 315 320 313 316 307 308 318 311 477 472 424 382 372 364 364 365
437 497 447 404 386 384 364 339 332 327 327 309 315 310 308 300 304 316 410 448 446 450 399 353 354 360 372
472 436 399 373 368 367 347 334 323 313 323 310 313 305 306 299 301 335 405 404 398 387 385 363 345 339 335
414 393 372 364 363 349 342 341 327 312 319 307 312 300 300 301 299 337 386 416 403 336 332 323 331 344 346
373 350 345 332 341 307 306 294 294 313 320 308 306 305 295 287 310 338 382 373 363 331 330 326 332 339 343
332 324 315 313 309 308 305 300 302 288 279 319 306 300 297 290 309 331 367 362 351 327 325 330 345 385 403
318 384 446 440 428 406 323 315 315 302 292 280 313 305 293 285 308 367 354 340 359 319 308 368 386 367 396
372 370 397 422 418 432 466 412 393 330 301 281 302 309 292 288 316 378 359 342 327 345 367 375 368 380 379
374 258 340 405 413 428 427 412 382 394 313 293 294 312 292 299 322 381 352 326 339 358 373 393 366 375 377
278 350 369 358 391 403 397 390 378 404 284 267 300 297 289 308 324 369 340 302 345 370 365 412 373 374 375
356 358 352 357 362 389 391 373 390 404 278 265 310 297 295 318 378 361 294 337 359 374 411 392 367 378 399
Wind_Speed
114 108 112 113 109 106 111 120 124 132 137 58 60 52 43 43 45 47 46 49 51 54 59 63 66 67 71
104 81 110 105 113 119 126 134 140 53 62 60 53 33 50 50 50 52 52 53 56 60 63 66 68 70 70
103 103 108 119 126 132 138 55 58 59 60 45 57 49 51 50 52 53 53 55 57 58 59 58 57 60 66
99 111 121 127 134 135 51 60 60 55 44 46 47 46 48 41 46 50 49 54 59 60 58 56 57 55 54
114 123 128 135 127 55 58 53 46 38 36 52 45 39 38 43 44 44 46 49 53 54 59 59 55 52 50
125 133 131 49 47 54 37 32 36 43 34 53 36 43 41 44 47 48 49 55 52 49 45 48 50 49 49
133 128 41 44 44 44 37 34 38 39 35 51 38 46 41 46 48 52 51 33 27 32 38 39 42 43 43
81 42 38 40 40 34 35 38 44 45 35 46 40 47 41 46 48 51 44 30 27 24 28 33 34 36 36
44 39 39 42 39 33 36 37 41 50 41 44 41 44 39 44 46 52 41 36 33 27 23 27 31 33 36
45 44 44 42 39 35 32 34 37 46 44 46 43 39 45 41 40 52 40 33 26 28 28 30 31 31 34
48 50 47 42 40 40 38 40 39 38 41 43 44 40 37 46 47 51 36 31 29 29 28 30 31 31 33
54 54 53 52 49 46 44 42 38 37 43 39 40 37 36 37 42 51 38 35 27 29 30 33 35 34 34
59 54 45 44 45 47 51 45 42 33 34 36 34 34 32 32 40 40 30 34 33 30 30 33 34 33 31
50 51 42 38 38 36 31 38 40 38 28 33 32 30 30 29 35 33 30 26 29 30 33 33 32 30 31
45 52 45 38 36 31 25 25 32 29 24 25 27 27 26 31 39 31 27 25 26 30 31 32 29 28 26
50 45 41 39 34 30 23 22 24 22 18 17 20 21 24 28 36 27 23 21 27 29 27 25 22 21 21
44 43 42 37 35 29 24 20 18 17 16 16 17 20 21 29 23 20 17 23 27 25 21 23 18 17 21
Wind_Direction
297 297 295 294 297 301 299 300 297 296 299 296 297 297 290 289 286 283 280 277 274 272 268 267 264 265 267
297 295 297 302 303 303 302 299 300 298 297 298 295 281 291 292 290 284 281 278 274 271 269 267 264 263 263
298 302 304 305 304 302 301 297 296 297 296 295 289 288 291 290 288 287 286 282 278 275 274 272 268 266 264
307 307 305 304 303 303 296 296 295 296 295 289 288 291 289 291 287 285 283 281 281 279 277 275 275 272 270
308 307 305 303 304 299 299 296 294 294 296 289 294 293 293 291 289 288 284 282 289 283 273 274 271 270 267
308 306 305 303 300 300 299 294 293 298 290 289 300 293 298 299 298 300 297 299 290 282 276 271 270 268 268
307 306 303 300 297 297 293 291 287 287 294 292 300 296 301 301 301 305 302 318 317 293 278 272 271 271 269
308 307 303 298 298 295 289 292 293 292 293 293 299 298 303 301 302 308 321 331 329 322 289 277 273 270 268
308 304 299 299 298 292 286 286 286 292 294 294 297 297 300 300 306 319 327 325 321 314 302 284 275 270 267
306 304 304 302 296 294 291 283 282 287 291 293 296 299 301 300 306 326 323 327 321 289 286 282 280 277 274
309 311 309 306 302 298 296 295 295 289 283 289 294 298 300 305 316 326 323 319 313 295 291 288 289 289 283
311 308 305 303 300 296 294 291 289 289 296 288 289 294 300 303 315 325 320 317 314 298 303 305 298 295 290
309 307 308 304 299 292 289 290 286 286 285 294 292 294 297 304 316 321 311 311 316 313 311 314 313 300 299
312 311 318 316 309 304 301 283 281 279 280 290 293 295 298 300 319 320 308 311 311 314 325 322 312 310 304
322 309 316 327 322 320 307 287 281 280 278 278 293 295 299 312 321 320 314 314 321 332 328 322 317 312 307
316 324 325 326 326 322 307 294 286 282 277 290 292 291 301 319 319 306 317 318 340 336 332 335 325 325 330
325 326 325 325 328 321 313 300 295 280 274 293 290 298 310 320 321 324 327 344 338 340 347 342 344 347 343